COSMOS 2251 DEB, 39110

Orbit data source: Space-Track

COSMOS 2251 DEB, 39110 is space debris in LEO originally from a launch on Wed, 16 Jun 1993 UTC launched from the Plesetsk Missile And Space Complex (PKMTR). The debris from Iridium 33, an American commercial communications satellite, has been tracked extensively since its accidental collision with the defunct Russian satellite Cosmos 2251 in 2009. This event, occurring at high speed in low Earth orbit (LEO), generated thousands of pieces of space debris, significantly increasing the risk of further collisions. The Iridium 33 debris cloud has impacted space traffic management and orbital debris mitigation strategies, making it a subject of ongoing study in space situational awareness.

Loading next visibility...
Identifier
39110, 1993-036BTZ
Orbit
LEO
Country
Flag of CISCIS
Related business
Manufacturer
Unknown
Mission
Spacecraft
Bus & Motor
Unknown
Mass
Unknown
Launch date (UTC)
1993-06-16 (33 years ago)
Launch vehicle
Unknown
Launch site
Plesetsk Missile And Space Complex (PKMTR)
Object type
Payload
Rocket body
Debris
Shape & HBR
Unknown shape, 0.1 m
Radar Cross Section
Small (<0.1 m²)

Expand to show TLE details & history
Last TLE update: 4 months ago

TLE from 4 months ago
0 COSMOS 2251 DEB
1 39110U 93036BTZ 25351.92013797  .00001945  00000-0  29100-3 0  9993
2 39110  73.9594  51.3776 0097446 282.6592 255.1600 14.72312917625601
Epoch: 2025-12-17T22:04Z
TLE epoch observation values (Epoch: 2025-12-17T22:04:59.920Z)
Latitude
3.03639°
Longitude
172.47571°
Altitude
674.176 km
Speed
7.51 km/s
True Right ascension
15h 22m 02s
True Declination
3° 01' 05"
Sunlit
Object was in daylight at epoch
Visualization orbit readout
Latitude
Unknown
Longitude
Unknown
Altitude
Unknown
Speed
Unknown
Apparent Right ascension
Unknown
Apparent Declination
Unknown
Sunlit
N/A
Visualization observer readout
Local Sidereal Time
01:14:25
Azimuth
Unknown
Elevation
Unknown
Doppler factor
Unknown
Orbital elements
Apogee altitude
719.783 km
Perigee altitude
582.785 km
Semi-major axis
7,029.421 km
Eccentricity
0.00974
Inclination
73.9594°
RAAN
51.3776°
Arg. of periapsis
282.6592°
True anomaly
254.08402°
Mean anomaly
255.16°
Eccentric anomaly
254.62167°
Mean motion
3.68268 °/min
Orbital period
97.75 mins
BSTAR
0.000291
Loading maneuver chart data...
Computing Atmospheric mass density...

Documentation

Showing up to 5 results
|